This is the latest recevied weather packets stored in our database for station/object HS6PNA-2. If no packets are shown the sender has not sent any weather packets the latest 10 day(s).
| Time | Temp. | Humidity | Pressure | Rain* | Wind** | Luminosity | Snow |
|---|---|---|---|---|---|---|---|
| 1777800166 | 33.89° C | 26% | 999 hPa | - | - | 0 W/m² | - |
| 1777799242 | 33.33° C | 25% | 999 hPa | - | - | 0 W/m² | - |
| 1777798318 | 33.33° C | 25% | 999 hPa | - | - | 0 W/m² | - |
| 1777797392 | 33.33° C | 25% | 1000 hPa | - | - | 0 W/m² | - |
| 1777796467 | 33.33° C | 26% | 1000 hPa | - | - | 0 W/m² | - |
| 1777795543 | 33.33° C | 26% | 1000 hPa | - | - | 0 W/m² | - |
| 1777794618 | 32.78° C | 27% | 1000 hPa | - | - | 0 W/m² | - |
| 1777793694 | 32.78° C | 28% | 1000 hPa | - | - | 0 W/m² | - |
| 1777792770 | 32.78° C | 30% | 1001 hPa | - | - | 0 W/m² | - |
| 1777791845 | 32.78° C | 27% | 1001 hPa | - | - | 0 W/m² | - |
| 1777790921 | 31.11° C | 32% | 1001 hPa | - | - | 0 W/m² | - |
| 1777789996 | 31.67° C | 44% | 1002 hPa | - | - | 0 W/m² | - |
| 1777789072 | 36.67° C | 48% | 1002 hPa | - | - | 0 W/m² | - |
| 1777788147 | 36.11° C | 48% | 1003 hPa | - | - | 0 W/m² | - |
| 1777787223 | 35° C | 51% | 1003 hPa | - | - | 0 W/m² | - |
| 1777786298 | 35° C | 51% | 1003 hPa | - | - | 0 W/m² | - |
| 1777785374 | 36.11° C | 46% | 1004 hPa | - | - | 0 W/m² | - |
| 1777784449 | 36.11° C | 47% | 1004 hPa | - | - | 0 W/m² | - |
| 1777783525 | 35° C | 49% | 1004 hPa | - | - | 0 W/m² | - |
| 1777782600 | 35° C | 49% | 1004 hPa | - | - | 0 W/m² | - |
| 1777781676 | 34.44° C | 49% | 1005 hPa | - | - | 0 W/m² | - |
| 1777780751 | 34.44° C | 50% | 1005 hPa | - | - | 0 W/m² | - |
| 1777779827 | 33.89° C | 50% | 1005 hPa | - | - | 0 W/m² | - |
| 1777778902 | 33.89° C | 51% | 1005 hPa | - | - | 0 W/m² | - |
| 1777777978 | 33.33° C | 51% | 1006 hPa | - | - | 0 W/m² | - |
* Rain since midnight (hover to see other rain measurements)
** Current wind speed in m/s (hover to see current wind gust speed)